Regional Weather Roundup
Issued by NWS Cleveland, OH

Home | Current Version | Previous Version | Text Only | Print | Product List | Glossary Off
Versions: 1 2 3 4 5 6 7 8 9 10 11 12 13 14 15 16 17 18 19 20 21 22 23 24 25 26 27 28 29 30 31 32 33 34 35 36 37 38 39 40 41 42 43 44 45 46 47 48 49 50

000
ASUS41 KCLE 180710
RWRCLE
OHIO REGIONAL WEATHER ROUNDUP
NATIONAL WEATHER SERVICE CLEVELAND, OH
200 AM EST MON DEC 18 2017

NOTE: "FAIR" INDICATES FEW OR NO CLOUDS BELOW 12,000 FEET WITH NO
SIGNIFICANT WEATHER AND/OR OBSTRUCTIONS TO VISIBILITY.

OHZ001>008-015>018-024>027-034-035-043-044-180800-
   NORTHWEST OHIO

CITY           SKY/WX    TMP DP  RH WIND       PRES   REMARKS
DEFIANCE       CLOUDY    39  33  79 SW8       30.01F
FINDLAY        CLOUDY    39  32  76 SW9       30.02F
TOLEDO EXPRESS CLOUDY    39  36  89 SW9       30.01S
TOLEDO EXEC    CLOUDY    38  34  85 SW7       30.02F
LIMA           CLOUDY    38  35  89 SW10      30.03S
$$

OHZ009>014-019>023-028>033-038-089-180800-
   NORTHEAST OHIO

CITY           SKY/WX    TMP DP  RH WIND       PRES   REMARKS
CLE-HOPKINS    CLOUDY    38  34  85 SW6       30.05F
CLE-LAKEFRONT  CLOUDY    40  32  73 MISG      30.01F
CUY CO. ARPT   NOT AVBL
LORAIN-ELYRIA  CLOUDY    36  29  75 SW8       30.03F
ASHTABULA      CLOUDY    36  33  89 S8        30.03F
AKRON-CANTON   CLOUDY    36  31  82 S5        30.04F
WOOSTER        CLOUDY    35  32  88 S5        30.04F
MANSFIELD      CLOUDY    38  33  82 SW9       30.03F
YOUNGSTOWN     CLOUDY    36  31  82 S6        30.03F
$$

OHZ042-051>053-060>062-070>072-077>081-180800-
  SOUTHWEST OHIO

CITY           SKY/WX    TMP DP  RH WIND       PRES   REMARKS
CINC-COVINGTON DRIZZLE   41  40  96 S7        30.08F
CINC-LUNKEN    CLOUDY    42  39  89 S6        30.11F
HAMILTON       CLOUDY    41  38  89 CALM      30.09F
DAYTON         CLOUDY    39  36  89 SW8       30.06F
WRIGHT-PAT AFB CLOUDY    40  37  87 S6        30.06S
DAYTON GENERAL CLOUDY    41  36  82 SW7       30.06F
WILMINGTON     CLOUDY    39  38  96 SW8       30.08S
$$

OHZ036-037-039>041-045>050-054>059-063>069-073>076-082>088-180800-
  CENTRAL AND SOUTHEAST OHIO

CITY           SKY/WX    TMP DP  RH WIND       PRES   REMARKS
COLUMBUS       PTCLDY    38  34  85 S5        30.08S
OSU AIRPORT    CLOUDY    38  35  89 S7        30.07R
BOLTON FIELD   CLOUDY    38  36  90 SW12      30.07S
RICKENBACK AFB CLEAR     36  35  97 S7        30.08S
NEWARK         CLOUDY    35  31  85 S5        30.07F
MARION         CLOUDY    37  32  82 S7        30.05F
LANCASTER      CLOUDY    39  35  86 VRB3      30.09R
ZANESVILLE     CLOUDY    38  32  79 S5        30.08F
NEW PHILLY     NOT AVBL
$$




USA.gov is the U.S. government's official web portal to all federal, state and local government web resources and services.